カタログに戻る

NOAA 16 DEB

運用中PO
NORAD 42379·DEBRIS·🇺🇸 United States

打ち上げ Sep 21, 2000 から Vandenberg Space Force Base

Loading…

次のパス (今後24時間)

TLE

最新Source: Space-Track

元期: Sep 14, 2026, 21:08 UTC

1 42379U 00055RX  26257.88078237  .00021203  00000-0  25070-2 0  9994
2 42379  98.9142 122.8081 0017759 160.5203 199.6690 14.84548558549536

AllMySatでNOAA 16 DEBをリアルタイム追跡

Download on the App Store